Location: Rumah Dana
(3.1167°N, 113.0167°E)
Time: 04:10:38
(UTC+00:00)

CARTOSAT-1 - Pass Details

Date: 20 January 2026
Orbit: 594 x 598 km, 97.5° (Epoch: 11 February)

Event Time Altitude Azimuth Distance (km) Brightness Sun altitude
Rises 11:33:48 0° 165° (SSE) 2,837 7.0 -13.9°
Reaches altitude 10° 11:35:58 10° 162° (SSE) 1,933 6.1 -14.5°
Maximum altitude 11:40:09 70° 79° (E) 637 3.4 -15.4°
Drops below altitude 10° 11:44:19 10° 355° (N) 1,926 5.9 -16.4°
Sets 11:46:29 0° 353° (N) 2,826 6.8 -16.9°
